Terug naar catalogus

STARLINK-36474

ActiefCommunicatieVLEO
NORAD 67353·PAYLOAD·🇺🇸 United States

Gelanceerd Jan 9, 2026 vanaf Cape Canaveral Space Force Station

Loading…

Volgende Passages (komende 24 uur)

TLE

VersSource: CelesTrak SupGP

Epoch: Sep 15, 2026, 04:15 UTC

1 67353C 26003V   26258.17756944 -.00039864  00000+0 -14453-2 0  2589
2 67353  43.0016 237.3478 0001437 268.4603 281.7324 15.27564806    10

Volg STARLINK-36474 in realtime met AllMySat

Download on the App Store